Appleton, MN

1:48 AM CDT on May 25, 2017 (GMT -0500)
Appleton Municipal

Weather History for KAQP - June, 2015

Change the Weather History Date:

Wednesday, June 3, 2015

  Actual Average Record
Temperature  
Mean Temperature 66 °F -  
Max Temperature 73 °F 71 °F 86 °F (2006)
Min Temperature 57 °F 50 °F 39 °F (1998)
Cooling Degree Days 1    
Growing Degree Days 16 (Base 50)    
Moisture  
Dew Point 60 °F    
Average Humidity 78    
Maximum Humidity 94    
Minimum Humidity 60    
Precipitation  
Precipitation 0.04 in - - ()
Sea Level Pressure  
Sea Level Pressure 29.83 in    
Wind  
Wind Speed 9 mph (WNW)    
Max Wind Speed 15 mph    
Max Gust Speed 23 mph    
Visibility 9 miles    
Events Rain , Thunderstorm    
Averages and records for this station are not official NWS values.
T = Trace of Precipitation, MM = Missing Value Source: NWS Daily Summary

Daily Weather History Graph

Daily Weather History Graph

Search for Another Location

Airport or City:

Trip Planner

Search our weather history database for the weather conditions in past years. The results will help you decide how hot, cold, wet, or windy it might be!

Date:

Astronomy

Jun. 03, 2015 Rise Set
Actual Time 5:38 AM CDT 9:05 PM CDT
Civil Twilight 5:02 AM CDT 9:42 PM CDT
Nautical Twilight 4:13 AM CDT 10:31 PM CDT
Astronomical Twilight 3:11 AM CDT 11:33 PM CDT
Moon 9:59 PM CDT (6/3) 6:47 AM CDT (6/3)
Length of Visible Light 16h 40m
Length of Day
15h 27m
Full, 99% of the Moon is Illuminated
Jun 3
Full
Jun 9
Last Quarter
Jun 16
New
Jun 24
First Quarter
Jul 1
Full

Hourly Weather History & Observations

Time (CDT) Temp. Dew Point Humidity Pressure Visibility Wind Dir Wind Speed Gust Speed Precip Events Conditions
12:14 AM 69.8 °F 55.4 °F 60% 29.76 in 10.0 mi SSE 15.0 mph 23.0 mph N/A   Clear
12:34 AM 69.8 °F 55.4 °F 60% 29.77 in 10.0 mi South 12.7 mph 18.4 mph N/A   Scattered Clouds
12:54 AM 69.8 °F 55.4 °F 60% 29.76 in 10.0 mi SSE 12.7 mph 20.7 mph N/A   Scattered Clouds
1:14 AM 69.8 °F 55.4 °F 60% 29.75 in 10.0 mi South 11.5 mph 20.7 mph N/A   Clear
1:35 AM 68.0 °F 57.2 °F 68% 29.75 in 10.0 mi SSE 9.2 mph - N/A   Clear
1:55 AM 68.0 °F 57.2 °F 68% 29.75 in 10.0 mi SSE 9.2 mph - N/A   Clear
2:14 AM 68.0 °F 57.2 °F 68% 29.76 in 10.0 mi SSE 8.1 mph - N/A   Clear
2:34 AM 68.0 °F 57.2 °F 68% 29.76 in 10.0 mi SSE 6.9 mph - N/A   Clear
2:54 AM 66.2 °F 57.2 °F 73% 29.76 in 10.0 mi South 6.9 mph - N/A   Clear
3:15 AM 66.2 °F 59.0 °F 78% 29.77 in 7.0 mi South 6.9 mph - N/A   Clear
3:34 AM 66.2 °F 59.0 °F 78% 29.77 in 10.0 mi SSE 3.5 mph - N/A   Clear
3:55 AM 64.4 °F 57.2 °F 77% 29.77 in 10.0 mi SE 4.6 mph - N/A   Clear
4:14 AM 64.4 °F 59.0 °F 83% 29.77 in 10.0 mi SE 6.9 mph - N/A   Clear
4:34 AM 64.4 °F 57.2 °F 77% 29.77 in 10.0 mi SE 4.6 mph - N/A   Clear
4:54 AM 64.4 °F 59.0 °F 83% 29.77 in 10.0 mi SSE 5.8 mph - N/A   Clear
5:15 AM 64.4 °F 59.0 °F 83% 29.77 in 10.0 mi SSE 6.9 mph - N/A   Clear
5:35 AM 64.4 °F 59.0 °F 83% 29.76 in 10.0 mi SE 5.8 mph - N/A   Clear
5:54 AM 64.4 °F 59.0 °F 83% 29.76 in 10.0 mi SSE 6.9 mph - N/A   Clear
6:15 AM 64.4 °F 60.8 °F 88% 29.75 in 10.0 mi SSE 5.8 mph - N/A   Scattered Clouds
6:35 AM 66.2 °F 60.8 °F 83% 29.75 in 10.0 mi SSE 8.1 mph - N/A Thunderstorm Scattered Clouds
6:54 AM 66.2 °F 60.8 °F 83% 29.76 in 10.0 mi SSE 6.9 mph - N/A   Scattered Clouds
7:14 AM 66.2 °F 60.8 °F 83% 29.76 in 10.0 mi South 8.1 mph - N/A Thunderstorm Scattered Clouds
7:55 AM 66.2 °F 60.8 °F 83% 29.76 in 10.0 mi SSW 8.1 mph - N/A Rain , Thunderstorm Light Thunderstorms and Rain
8:15 AM 66.2 °F 60.8 °F 83% 29.75 in 7.0 mi Calm Calm - N/A Rain Light Rain
8:35 AM 66.2 °F 60.8 °F 83% 29.76 in 7.0 mi SE 8.1 mph - N/A Rain , Thunderstorm Light Thunderstorms and Rain
8:55 AM 64.4 °F 60.8 °F 88% 29.76 in 5.0 mi SSW 3.5 mph - N/A Rain Light Rain
9:14 AM 66.2 °F 62.6 °F 88% 29.76 in 5.0 mi WSW 5.8 mph - N/A Rain , Thunderstorm Light Thunderstorms and Rain
9:34 AM 66.2 °F 62.6 °F 88% 29.78 in 5.0 mi West 4.6 mph - N/A Rain Light Rain
9:54 AM 66.2 °F 62.6 °F 88% 29.79 in 4.0 mi East 5.8 mph - N/A Rain , Thunderstorm Thunderstorms and Rain
10:15 AM 66.2 °F 62.6 °F 88% 29.82 in 7.0 mi SSW 3.5 mph - N/A Rain , Thunderstorm Light Thunderstorms and Rain
10:35 AM 66.2 °F 62.6 °F 88% 29.82 in 4.0 mi Calm Calm - N/A Rain , Thunderstorm Rain
10:54 AM 66.2 °F 62.6 °F 88% 29.83 in 3.0 mi Calm Calm - 0.02 in Rain Rain
11:14 AM 66.2 °F 62.6 °F 88% 29.84 in 4.0 mi NW 8.1 mph - N/A Rain Rain
11:35 AM 66.2 °F 62.6 °F 88% 29.83 in 5.0 mi NW 5.8 mph - 0.02 in Rain Rain
11:55 AM 64.4 °F 62.6 °F 94% 29.83 in 3.0 mi NW 3.5 mph - 0.02 in Rain Rain
12:14 PM 64.4 °F 62.6 °F 94% 29.83 in 3.0 mi NNE 6.9 mph - N/A Rain Light Rain
12:34 PM 64.4 °F 62.6 °F 94% 29.82 in 3.0 mi North 9.2 mph - N/A Rain Light Rain
12:55 PM 66.2 °F 62.6 °F 88% 29.84 in 3.0 mi North 11.5 mph - N/A   Light Drizzle
1:15 PM 66.2 °F 62.6 °F 88% 29.84 in 2.5 mi North 11.5 mph - N/A   Overcast
1:54 PM 66.2 °F 62.6 °F 88% 29.86 in 7.0 mi NNW 10.4 mph - N/A   Overcast
2:14 PM 66.2 °F 62.6 °F 88% 29.85 in 10.0 mi NW 9.2 mph - N/A   Overcast
2:35 PM 69.8 °F 62.6 °F 78% 29.87 in 10.0 mi NW 9.2 mph - N/A   Mostly Cloudy
2:54 PM 69.8 °F 62.6 °F 78% 29.87 in 10.0 mi NW 9.2 mph - N/A   Overcast
3:14 PM 69.8 °F 62.6 °F 78% 29.88 in 10.0 mi NW 9.2 mph - N/A   Overcast
3:34 PM 71.6 °F 62.6 °F 73% 29.88 in 10.0 mi WNW 9.2 mph - N/A   Mostly Cloudy
3:54 PM 71.6 °F 62.6 °F 73% 29.88 in 10.0 mi West 9.2 mph - N/A   Scattered Clouds
4:14 PM 71.6 °F 62.6 °F 73% 29.88 in 10.0 mi West 8.1 mph - N/A   Clear
4:35 PM 73.4 °F 62.6 °F 69% 29.88 in 10.0 mi NW 6.9 mph - N/A   Scattered Clouds
4:55 PM 73.4 °F 60.8 °F 65% 29.88 in 10.0 mi NW 5.8 mph - N/A   Scattered Clouds
5:15 PM 73.4 °F 62.6 °F 69% 29.87 in 10.0 mi WNW 5.8 mph - N/A   Scattered Clouds
5:34 PM 73.4 °F 62.6 °F 69% 29.87 in 10.0 mi Calm Calm - N/A   Mostly Cloudy
5:55 PM 73.4 °F 62.6 °F 69% 29.87 in 10.0 mi NNW 10.4 mph - N/A   Mostly Cloudy
6:15 PM 73.4 °F 60.8 °F 65% 29.87 in 10.0 mi NW 12.7 mph - N/A   Mostly Cloudy
6:34 PM 71.6 °F 60.8 °F 69% 29.87 in 10.0 mi NNW 10.4 mph - N/A   Mostly Cloudy
6:54 PM 71.6 °F 60.8 °F 69% 29.87 in 10.0 mi NNW 11.5 mph - N/A   Mostly Cloudy
7:14 PM 71.6 °F 59.0 °F 64% 29.87 in 10.0 mi NNW 12.7 mph - N/A   Scattered Clouds
7:34 PM 69.8 °F 57.2 °F 64% 29.88 in 10.0 mi NNW 10.4 mph - N/A   Clear
7:54 PM 69.8 °F 57.2 °F 64% 29.88 in 10.0 mi NNW 8.1 mph - N/A   Clear
8:14 PM 68.0 °F 57.2 °F 68% 29.89 in 10.0 mi NNW 10.4 mph - N/A   Clear
8:35 PM 66.2 °F 57.2 °F 73% 29.89 in 10.0 mi NW 8.1 mph - N/A   Clear
8:54 PM 64.4 °F 57.2 °F 77% 29.89 in 10.0 mi NNW 8.1 mph - N/A   Clear
9:15 PM 64.4 °F 57.2 °F 77% 29.91 in 10.0 mi WNW 4.6 mph - N/A   Clear
9:35 PM 62.6 °F 57.2 °F 82% 29.91 in 10.0 mi NW 5.8 mph - N/A   Clear
9:55 PM 62.6 °F 55.4 °F 77% 29.92 in 10.0 mi NNW 6.9 mph - N/A   Clear
10:14 PM 60.8 °F 55.4 °F 82% 29.93 in 10.0 mi NW 5.8 mph - N/A   Clear
10:35 PM 60.8 °F 55.4 °F 82% 29.94 in 10.0 mi NW 6.9 mph - N/A   Clear
10:55 PM 60.8 °F 55.4 °F 82% 29.94 in 10.0 mi NNW 6.9 mph - N/A   Clear
11:15 PM 60.8 °F 55.4 °F 82% 29.94 in 10.0 mi North 10.4 mph - N/A   Clear
11:34 PM 59.0 °F 55.4 °F 88% 29.94 in 10.0 mi NNW 5.8 mph - N/A   Clear
11:55 PM 57.2 °F 53.6 °F 88% 29.94 in 10.0 mi North 6.9 mph - N/A   Clear